Weather History for Pipestone, MN

Change the Weather History Date:

Sunday, November 24, 2013

  Actual Average Record
Temperature  
Mean Temperature 20 °F -  
Max Temperature 35 °F 36 °F 60 °F (2011)
Min Temperature 6 °F 20 °F 1 °F (1996)
Degree Days  
Heating Degree Days 44    
Moisture  
Dew Point 13 °F    
Average Humidity 67    
Maximum Humidity 79    
Minimum Humidity 52    
Precipitation  
Precipitation 0.00 in - - ()
Sea Level Pressure  
Sea Level Pressure 30.22 in    
Wind  
Wind Speed 16 mph (SW)    
Max Wind Speed 31 mph    
Max Gust Speed 36 mph    
Visibility 10 miles    
Events      
Averages and records for this station are not official NWS values.
T = Trace of Precipitation, MM = Missing Value Source: NWS Daily Summary

Daily Weather History Graph

Daily Weather History Graph

Search for Another Location

Airport:

Trip Planner

Search our weather history database for the weather conditions in past years. The results will help you decide how hot, cold, wet, or windy it might be!

Date:

Astronomy

Nov. 24, 2013 Rise Set
Actual Time 7:31 AM CST 4:51 PM CST
Civil Twilight 7:00 AM CST 5:23 PM CST
Nautical Twilight 6:24 AM CST 5:59 PM CST
Astronomical Twilight 5:50 AM CST 6:33 PM CST
Moon 11:25 PM CST (11/24) 12:14 PM CST (11/24)
Length of Visible Light 10h 23m
Length of Day
9h 19m
Waning Gibbous, 60% of the Moon is Illuminated
Nov 24
Waning Gibbous
Nov 25
Last Quarter
Dec 2
New
Dec 9
First Quarter
Dec 17
Full

Hourly Weather History & Observations

Time (CST) Temp. Windchill Dew Point Humidity Pressure Visibility Wind Dir Wind Speed Gust Speed Precip Events Conditions
12:13 AM 8.6 °F -2.6 °F 1.4 °F 73% 30.59 in 10.0 mi SSW 6.9 mph - N/A   Clear
12:33 AM - - - N/A% - 10.0 mi South 6.9 mph - N/A   Clear
12:53 AM - - - N/A% - 10.0 mi SSW 6.9 mph - N/A   Clear
1:13 AM 8.6 °F -2.6 °F 1.4 °F 73% 30.55 in 10.0 mi South 6.9 mph - N/A   Clear
1:33 AM 6.8 °F -3.5 °F 1.4 °F 79% 30.55 in 10.0 mi South 5.8 mph - N/A   Clear
1:53 AM 8.6 °F 0.1 °F 1.4 °F 73% 30.55 in 10.0 mi South 4.6 mph - N/A   Clear
2:13 AM 8.6 °F -1.3 °F 1.4 °F 73% 30.55 in 10.0 mi South 5.8 mph - N/A   Clear
2:33 AM 8.6 °F -4.7 °F 3.2 °F 79% 30.54 in 10.0 mi SSW 9.2 mph - N/A   Clear
2:53 AM 10.4 °F -3.3 °F 3.2 °F 73% 30.52 in 10.0 mi SSW 10.4 mph - N/A   Clear
3:13 AM 10.4 °F -3.3 °F 3.2 °F 73% 30.51 in 10.0 mi SSW 10.4 mph - N/A   Clear
3:33 AM 10.4 °F -4.8 °F 3.2 °F 73% 30.48 in 10.0 mi SSW 12.7 mph - N/A   Clear
3:53 AM 10.4 °F -4.8 °F 3.2 °F 73% 30.48 in 10.0 mi SSW 12.7 mph - N/A   Clear
4:13 AM 10.4 °F -6.6 °F 3.2 °F 73% 30.46 in 10.0 mi SSW 16.1 mph - N/A   Clear
4:33 AM 10.4 °F -6.6 °F 3.2 °F 73% 30.45 in 10.0 mi SSW 16.1 mph - N/A   Clear
4:53 AM 12.2 °F -3.7 °F 3.2 °F 67% 30.44 in 10.0 mi SSW 15.0 mph - N/A   Clear
5:13 AM 12.2 °F -3.7 °F 3.2 °F 67% 30.44 in 10.0 mi SSW 15.0 mph - N/A   Clear
5:33 AM 12.2 °F -5.3 °F 5.0 °F 73% 30.42 in 10.0 mi SSW 18.4 mph 23.0 mph N/A   Clear
5:53 AM 12.2 °F -5.3 °F 5.0 °F 73% 30.41 in 10.0 mi SSW 18.4 mph 25.3 mph N/A   Clear
6:13 AM 12.2 °F -5.8 °F 5.0 °F 73% 30.40 in 10.0 mi SSW 19.6 mph - N/A   Clear
6:33 AM 12.2 °F -5.8 °F 5.0 °F 73% 30.40 in 10.0 mi SSW 19.6 mph - N/A   Clear
6:53 AM 12.2 °F -3.7 °F 6.8 °F 79% 30.40 in 10.0 mi SSW 15.0 mph 21.9 mph N/A   Clear
7:14 AM 12.2 °F -5.3 °F 6.8 °F 79% 30.38 in 10.0 mi SSW 18.4 mph 23.0 mph N/A   Clear
7:33 AM 12.2 °F -4.3 °F 6.8 °F 79% 30.38 in 10.0 mi SSW 16.1 mph - N/A   Clear
7:53 AM 14.0 °F -3.0 °F 6.8 °F 73% 30.37 in 10.0 mi SSW 18.4 mph 25.3 mph N/A   Clear
8:13 AM 14.0 °F -3.0 °F 6.8 °F 73% 30.37 in 10.0 mi SSW 18.4 mph - N/A   Clear
8:33 AM 15.8 °F -1.5 °F 8.6 °F 73% 30.36 in 10.0 mi SSW 20.7 mph - N/A   Clear
8:53 AM 15.8 °F -1.1 °F 8.6 °F 73% 30.35 in 10.0 mi SSW 19.6 mph 24.2 mph N/A   Clear
9:13 AM 17.6 °F 0.9 °F 10.4 °F 73% 30.34 in 10.0 mi SSW 20.7 mph 25.3 mph N/A   Clear
9:33 AM 19.4 °F 2.8 °F 10.4 °F 68% 30.33 in 10.0 mi SSW 21.9 mph 27.6 mph N/A   Clear
9:53 AM 21.2 °F 6.4 °F 12.2 °F 68% 30.32 in 10.0 mi SSW 18.4 mph 26.5 mph N/A   Clear
10:13 AM 21.2 °F 4.5 °F 12.2 °F 68% 30.31 in 10.0 mi SW 24.2 mph 29.9 mph N/A   Clear
10:33 AM 23.0 °F 7.2 °F 14.0 °F 68% 30.29 in 10.0 mi SW 23.0 mph 31.1 mph N/A   Clear
10:53 AM 24.8 °F 8.4 °F 15.8 °F 69% 30.28 in 10.0 mi SW 27.6 mph 33.4 mph N/A   Clear
11:13 AM 24.8 °F 9.0 °F 15.8 °F 69% 30.26 in 10.0 mi SW 25.3 mph - N/A   Clear
11:33 AM 26.6 °F 11.4 °F 15.8 °F 64% 30.25 in 10.0 mi SW 25.3 mph 31.1 mph N/A   Clear
11:53 AM 28.4 °F 13.8 °F 17.6 °F 64% 30.22 in 10.0 mi SW 25.3 mph 33.4 mph N/A   Clear
12:13 PM 28.4 °F 13.3 °F 17.6 °F 64% 30.20 in 10.0 mi SW 27.6 mph 33.4 mph N/A   Clear
12:33 PM 30.2 °F 16.8 °F 17.6 °F 60% 30.18 in 10.0 mi SW 23.0 mph 33.4 mph N/A   Clear
12:53 PM 32.0 °F 19.2 °F 19.4 °F 60% 30.17 in 10.0 mi SW 23.0 mph 34.5 mph N/A   Clear
1:13 PM 33.8 °F 21.9 °F 19.4 °F 56% 30.15 in 10.0 mi SW 21.9 mph 28.8 mph N/A   Clear
1:33 PM 33.8 °F 20.5 °F 17.6 °F 52% 30.14 in 10.0 mi SW 27.6 mph 33.4 mph N/A   Clear
1:49 PM 33.8 °F 21.0 °F 19.4 °F 56% 30.14 in 10.0 mi SW 25.3 mph 32.2 mph N/A   Clear
2:13 PM 35.6 °F 24.0 °F 19.4 °F 52% 30.11 in 10.0 mi SW 23.0 mph 31.1 mph N/A   Clear
2:32 PM 35.6 °F 23.0 °F 19.4 °F 52% 30.09 in 10.0 mi SW 27.6 mph 33.4 mph N/A   Unknown
2:53 PM 35.6 °F 24.0 °F 21.2 °F 56% 30.08 in 10.0 mi SW 23.0 mph 35.7 mph N/A   Clear
3:13 PM 35.6 °F 22.3 °F 19.4 °F 52% 30.07 in 10.0 mi SW 31.1 mph 34.5 mph N/A   Clear
3:33 PM 35.6 °F 24.0 °F 19.4 °F 52% 30.07 in 10.0 mi SW 23.0 mph 31.1 mph N/A   Clear
3:53 PM 35.6 °F 24.2 °F 21.2 °F 56% 30.07 in 10.0 mi SW 21.9 mph 27.6 mph N/A   Clear
4:13 PM 35.6 °F 22.7 °F 21.2 °F 56% 30.06 in 10.0 mi SW 28.8 mph 32.2 mph N/A   Clear
4:33 PM 33.8 °F 21.9 °F 21.2 °F 60% 30.06 in 10.0 mi SW 21.9 mph 29.9 mph N/A   Clear
4:51 PM 33.8 °F 21.6 °F 21.2 °F 60% 30.05 in 10.0 mi SW 23.0 mph 26.5 mph N/A   Clear
5:13 PM 33.8 °F 21.9 °F 21.2 °F 60% 30.04 in 10.0 mi SW 21.9 mph 26.5 mph N/A   Clear
5:33 PM 33.8 °F 22.2 °F 21.2 °F 60% 30.04 in 10.0 mi SW 20.7 mph 26.5 mph N/A   Clear
5:48 PM 32.0 °F 20.1 °F 21.2 °F 64% 30.04 in 10.0 mi SW 19.6 mph 26.5 mph N/A   Clear
6:13 PM 32.0 °F 20.5 °F - N/A% 30.03 in 10.0 mi SW 18.4 mph - N/A   Clear
6:33 PM 30.2 °F 17.8 °F 21.2 °F 69% 30.02 in 10.0 mi SSW 19.6 mph 26.5 mph N/A   Clear
6:50 PM 30.2 °F - 19.4 °F 64% 30.01 in 10.0 mi North - - N/A   Clear
7:13 PM 30.2 °F 16.8 °F 19.4 °F 64% 29.99 in 10.0 mi SSW 23.0 mph 26.5 mph N/A   Clear
7:33 PM 30.2 °F 16.2 °F 19.4 °F 64% 29.99 in 10.0 mi SW 25.3 mph 28.8 mph N/A   Clear
7:54 PM 30.2 °F 16.8 °F 19.4 °F 64% 29.99 in 10.0 mi SW 23.0 mph 29.9 mph N/A   Clear
8:13 PM 30.2 °F 15.9 °F 21.2 °F 69% 29.96 in 10.0 mi SW 26.5 mph 34.5 mph N/A   Clear
8:33 PM 30.2 °F 16.5 °F 21.2 °F 69% 29.97 in 10.0 mi SW 24.2 mph 31.1 mph N/A   Clear
8:53 PM 30.2 °F 15.9 °F 19.4 °F 64% 29.98 in 10.0 mi SW 26.5 mph - N/A   Clear
9:13 PM 30.2 °F 16.5 °F 19.4 °F 64% 29.98 in 10.0 mi SW 24.2 mph 31.1 mph N/A   Clear
9:34 PM 28.4 °F 14.7 °F 19.4 °F 69% 29.98 in 10.0 mi SW 21.9 mph 27.6 mph N/A   Clear
9:53 PM 28.4 °F 14.7 °F 19.4 °F 69% 29.97 in 10.0 mi SW 21.9 mph 28.8 mph N/A   Clear
10:14 PM 28.4 °F 14.4 °F 17.6 °F 64% 29.97 in 10.0 mi SW 23.0 mph 26.5 mph N/A   Clear
10:33 PM 28.4 °F 15.4 °F - N/A% - 10.0 mi SW 19.6 mph 27.6 mph N/A   Clear
10:53 PM 28.4 °F 15.8 °F 19.4 °F 69% 29.96 in 10.0 mi SW 18.4 mph 25.3 mph N/A   Clear
11:13 PM 28.4 °F 15.4 °F 19.4 °F 69% 29.96 in 10.0 mi SW 19.6 mph 24.2 mph N/A   Clear
11:33 PM 28.4 °F 15.8 °F 19.4 °F 69% 29.96 in 10.0 mi SW 18.4 mph 24.2 mph N/A   Clear
11:54 PM 28.4 °F 16.2 °F 19.4 °F 69% 29.96 in 10.0 mi SW 17.3 mph - N/A   Clear